Flag for Switzerland Weather past 2 weeks in Monthey, Valais, Switzerland

Now
62 °F

Cool.


Feels Like: 62 °F
Forecast: 51 / 69 °F
Wind: 9 mph from Northwest

Location: Aigle

Current Time: Sep 23, 2014 at 4:38:08 PM

Latest Report: Sep 23, 2014 at 4:00 PM


Visibility: N/A

Pressure: 29.98 "Hg

Humidity: 62%

Dew point: 48 °F

Location of MontheyLocation

Historic Weather in Monthey — Graph

°F

Monthey temperature yesterday

Maximum temperature yesterday: 66 °F (at 4:00 PM)
Minimum temperature yesterday: 54 °F (at 11:00 PM)
Average temperature yesterday: 60 °F

Past Weeks' High & Low Weather Summary

 TemperatureHumidityPressure
High76 °F (Sep 8, 3:00 PM)100% (Sep 10, 7:00 AM)30.11 "Hg (Sep 10, 7:00 AM)
Low44 °F (Sep 23, 5:00 AM)51% (Sep 12, 5:00 PM)29.82 "Hg (Sep 17, 3:00 PM)
Average62 °F82%29.98 "Hg
* Reported Sep 8 3:00 PM — Sep 23 3:00 PM, Monthey, Weather by CustomWeather, © 2014

Note: Actual official high and low records may vary slightly from our data, if they occured in-between our weather recording intervals... More about our weather records

Advertising

Monthey weather history for previous 24 hours

 ConditionsComfort  
Time TempWeatherWind HumidityBarometerVisibility
3:00 PM
Sep 23
62 °FCool.9 mph63%30.00 "HgN/A
2:00 PM60 °FPassing clouds.12 mph64%30.02 "Hg9 mi
1:00 PM59 °FCool.8 mph63%30.04 "HgN/A
12:00 PM58 °FCool.9 mph67%30.06 "HgN/A
11:00 AM57 °FPassing clouds.9 mph70%30.07 "Hg12 mi
10:00 AM55 °FRefreshingly cool.3 mph59%30.07 "HgN/A
9:00 AM52 °FCool.5 mph78%30.08 "HgN/A
8:00 AM46 °FScattered clouds.3 mph89%30.09 "Hg22 mi
7:00 AM44 °FQuite cool.3 mph93%30.10 "HgN/A
6:00 AM45 °FCool.3 mph92%30.10 "HgN/A
5:00 AM44 °FFog.2 mph97%30.10 "Hg4 mi
4:00 AM45 °FCool.2 mph96%30.11 "HgN/A
3:00 AM46 °FCool.1 mph93%30.11 "HgN/A
2:00 AM46 °FCool.2 mph96%30.10 "HgN/A
1:00 AM49 °FCool.2 mph85%30.08 "HgN/A
12:00 AM50 °FCool.3 mph87%30.07 "HgN/A
11:00 PM
Sep 22
54 °FCool.3 mph74%30.06 "HgN/A
10:00 PM57 °FCool.5 mph61%30.05 "HgN/A
9:00 PM57 °FCool.5 mph62%30.06 "HgN/A
8:00 PM61 °FPassing clouds.6 mph54%30.04 "Hg16 mi
7:00 PM62 °FRefreshingly cool.10 mph56%30.04 "HgN/A
6:00 PM65 °FMild.6 mph55%30.01 "HgN/A
5:00 PM65 °FPassing clouds.9 mph55%30.03 "Hg19 mi
4:00 PM66 °FMild.13 mph52%30.03 "HgN/A
Weather by CustomWeather, © 2014

See weather overviewHow to use our weather pages